This demonstration page uses our WeatherBlox Daily Observations layout. Learn more.

Left ArrowRight Arrow

38.80484, -77.04692

Hourly Observations for November 28, 2021

Temp ( °F °C ) Dew Point ( °F °C ) Humidity (%) Winds ( mph kmh ) Pressure ( in mb ) Visibility ( mi km ) Precip ( " mm )
12:52 am 00:52 Cloudy 43 6.1 24 -4.4 47 47 SE 5 7 29.92 1013 10 16 0.00 0.00
1:52 am 01:52 Cloudy 43 6.1 26 -3.3 51 51 ENE 3 6 29.92 1013 10 16 0.00 0.00
2:52 am 02:52 Cloudy 42 5.6 27 -2.8 55 55 NE 7 11 29.91 1013 10 16 0.00 0.00
3:52 am 03:52 Cloudy 41 5 27 -2.8 57 57 ENE 7 11 29.90 1013 10 16 0.00 0.00
4:52 am 04:52 Cloudy 40 4.4 26 -3.3 58 58 SSE 5 7 29.88 1012 10 16 0.00 0.00
5:52 am 05:52 Partly Cloudy 40 4.4 25 -3.9 55 55 Calm 29.88 1012 10 16 0.00 0.00
6:52 am 06:52 Mostly Clear 38 3.3 27 -2.8 65 65 Calm 29.87 1012 10 16 0.00 0.00
7:52 am 07:52 Sunny 38 3.3 28 -2.2 68 68 SSW 5 7 29.87 1012 10 16 0.00 0.00
8:52 am 08:52 Mostly Sunny 42 5.6 31 -0.6 65 65 S 7 11 29.88 1012 10 16 0.00 0.00
9:52 am 09:52 Mostly Sunny 45 7.2 31 -0.6 58 58 S 9 15 29.88 1012 10 16 0.00 0.00
10:52 am 10:52 Mostly Sunny 49 9.4 29 -1.7 46 46 S 8 13 29.86 1011 10 16 0.00 0.00
11:52 am 11:52 Partly Cloudy 50 10 29 -1.7 44 44 S 7 11 29.83 1010 10 16 0.00 0.00
12:52 pm 12:52 Mostly Sunny 55 12.8 29 -1.7 37 37 SSE 6 9 29.81 1009 10 16 0.00 0.00
1:52 pm 13:52 Partly Cloudy 55 12.8 30 -1.1 38 38 S 8 13 29.79 1009 10 16 0.00 0.00
2:52 pm 14:52 Mostly Cloudy 54 12.2 32 0 43 43 S 8 13 29.78 1009 10 16 0.00 0.00
3:52 pm 15:52 Mostly Cloudy 54 12.2 31 -0.6 42 42 S 7 11 29.79 1009 10 16 0.00 0.00
4:52 pm 16:52 Mostly Cloudy 51 10.6 32 0 48 48 S 6 9 29.80 1009 10 16 0.00 0.00
5:52 pm 17:52 Cloudy 49 9.4 34 1.1 56 56 N 10 17 29.82 1010 10 16 0.00 0.00
6:52 pm 18:52 Mostly Cloudy 48 8.9 32 0 54 54 NNE 8 13 29.84 1010 10 16 0.00 0.00
7:52 pm 19:52 Mostly Cloudy 48 8.9 32 0 54 54 NNE 9 15 29.85 1011 10 16 0.00 0.00
8:52 pm 20:52 Mostly Cloudy 46 7.8 32 0 58 58 N 12 19 29.86 1011 10 16 0.00 0.00
9:52 pm 21:52 Mostly Cloudy 46 7.8 31 -0.6 56 56 N 10 17 29.88 1012 10 16 0.00 0.00
10:52 pm 22:52 Cloudy 47 8.3 26 -3.3 44 44 NW 9 15 29.88 1012 10 16 0.00 0.00
11:52 pm 23:52 Cloudy 47 8.3 25 -3.9 42 42 NNW 13 20 29.89 1012 10 16 0.00 0.00

Powered by AerisWeather